When you browse on this site, cookies collect data to enhance your experience and personalize the content and advertising you see.
Visit our Privacy Policy to learn more. By continuing to use the site, you agree to this use of cookies and data.

Meteo pe oră la Truto

Astăzi, 20 Septembrie, Duminică

Timp Temperatura Precipitaţii Vânt Presiune Umiditate
00:00 +16°C° 0 mm 5 m/s 759 mmHg 74%
01:00 +16°C° 0 mm 5 m/s 759 mmHg 74%
02:00 +15°C° 0 mm 5 m/s 759 mmHg 74%
03:00 +15°C° 0 mm 5 m/s 759 mmHg 74%
04:00 +15°C° 0 mm 5 m/s 759 mmHg 75%
05:00 +15°C° 0 mm 4 m/s 759 mmHg 77%
06:00 +14°C° 0 mm 4 m/s 760 mmHg 81%
07:00 +15°C° 0 mm 4 m/s 760 mmHg 80%
08:00 +17°C° 0 mm 3 m/s 760 mmHg 79%
09:00 +17°C° 0 mm 3 m/s 760 mmHg 78%
10:00 +18°C° 0 mm 3 m/s 760 mmHg 76%
11:00 +19°C° 0 mm 3 m/s 761 mmHg 75%
12:00 +20°C° 0 mm 3 m/s 761 mmHg 71%
13:00 +21°C° 0 mm 3 m/s 760 mmHg 72%
14:00 +21°C° 0 mm 2 m/s 760 mmHg 73%
15:00 +21°C° 0 mm 2 m/s 760 mmHg 74%
16:00 +20°C° 0 mm 2 m/s 760 mmHg 78%
17:00 +19°C° 0 mm 2 m/s 760 mmHg 82%
18:00 +18°C° 0 mm 2 m/s 760 mmHg 86%
19:00 +18°C° 0 mm 2 m/s 760 mmHg 88%
20:00 +17°C° 0 mm 3 m/s 760 mmHg 89%
21:00 +17°C° 0 mm 3 m/s 760 mmHg 91%
22:00 +17°C° 0 mm 3 m/s 760 mmHg 91%
23:00 +16°C° 0 mm 3 m/s 760 mmHg 90%

Mâine, 21 Septembrie, Luni

Timp Temperatura Precipitaţii Vânt Presiune Umiditate
00:00 +16°C° 0 mm 3 m/s 760 mmHg 90%
01:00 +16°C° 0 mm 3 m/s 760 mmHg 90%
02:00 +16°C° 0 mm 3 m/s 760 mmHg 89%
03:00 +16°C° 0 mm 3 m/s 760 mmHg 89%
04:00 +14°C° 0 mm 3 m/s 760 mmHg 88%
05:00 +15°C° 0 mm 2 m/s 760 mmHg 87%
06:00 +15°C° 0 mm 2 m/s 760 mmHg 86%
07:00 +16°C° 0 mm 2 m/s 760 mmHg 80%
08:00 +17°C° 0 mm 2 m/s 760 mmHg 75%
09:00 +20°C° 0 mm 1 m/s 760 mmHg 69%
10:00 +21°C° 0 mm 1 m/s 760 mmHg 67%
11:00 +20°C° 0 mm 2 m/s 760 mmHg 65%
12:00 +21°C° 0 mm 2 m/s 760 mmHg 63%
13:00 +21°C° 0 mm 2 m/s 760 mmHg 65%
14:00 +21°C° 0 mm 2 m/s 760 mmHg 66%
15:00 +21°C° 0 mm 2 m/s 759 mmHg 68%
16:00 +20°C° 0 mm 1 m/s 759 mmHg 74%
17:00 +19°C° 0 mm 1 m/s 759 mmHg 79%
18:00 +16°C° 0 mm 0 m/s 758 mmHg 85%
19:00 +15°C° 0 mm 0 m/s 758 mmHg 86%
20:00 +15°C° 0 mm 0 m/s 758 mmHg 87%
21:00 +14°C° 0 mm 0 m/s 759 mmHg 88%
22:00 +14°C° 0 mm 0 m/s 758 mmHg 89%
23:00 +14°C° 0 mm 0 m/s 758 mmHg 89%

Poimâine, 22 Septembrie, Marţi

Timp Temperatura Precipitaţii Vânt Presiune Umiditate
00:00 +14°C° 0 mm 0 m/s 758 mmHg 89%
01:00 +13°C° 0 mm 0 m/s 757 mmHg 89%
02:00 +14°C° 0 mm 1 m/s 757 mmHg 89%
03:00 +14°C° 0 mm 1 m/s 756 mmHg 89%
04:00 +14°C° 0 mm 1 m/s 756 mmHg 89%
05:00 +14°C° 0 mm 2 m/s 756 mmHg 89%
06:00 +14°C° 0 mm 2 m/s 755 mmHg 89%
07:00 +15°C° 0 mm 2 m/s 755 mmHg 88%
08:00 +16°C° 0 mm 2 m/s 755 mmHg 87%
09:00 +17°C° 0 mm 2 m/s 755 mmHg 86%
10:00 +18°C° 0 mm 3 m/s 754 mmHg 85%
11:00 +18°C° 0 mm 4 m/s 754 mmHg 84%
12:00 +19°C° 0 mm 4 m/s 754 mmHg 83%
13:00 +17°C° 0.1 mm 5 m/s 754 mmHg 84%
14:00 +17°C° 0.1 mm 5 m/s 753 mmHg 84%
15:00 +17°C° 0.1 mm 5 m/s 753 mmHg 85%
16:00 +16°C° 0.1 mm 5 m/s 752 mmHg 87%
17:00 +16°C° 0.1 mm 5 m/s 752 mmHg 89%
18:00 +15°C° 0.1 mm 4 m/s 752 mmHg 91%
19:00 +15°C° 0 mm 4 m/s 752 mmHg 92%
20:00 +15°C° 0 mm 4 m/s 751 mmHg 92%
21:00 +14°C° 0 mm 4 m/s 751 mmHg 93%
22:00 +14°C° 0.1 mm 4 m/s 751 mmHg 94%
23:00 +14°C° 0.1 mm 4 m/s 751 mmHg 94%

23 Septembrie, Miercuri

Timp Temperatura Precipitaţii Vânt Presiune Umiditate
00:00 +14°C° 0.1 mm 4 m/s 750 mmHg 95%
01:00 +14°C° 0.1 mm 4 m/s 750 mmHg 95%
02:00 +14°C° 0.1 mm 4 m/s 750 mmHg 95%
03:00 +14°C° 0.1 mm 4 m/s 749 mmHg 94%
04:00 +14°C° 0.3 mm 4 m/s 749 mmHg 95%
05:00 +14°C° 0.3 mm 4 m/s 749 mmHg 95%
06:00 +14°C° 0.3 mm 3 m/s 749 mmHg 95%
07:00 +14°C° 0.4 mm 4 m/s 749 mmHg 93%
08:00 +14°C° 0.4 mm 5 m/s 749 mmHg 92%
09:00 +14°C° 0.4 mm 5 m/s 749 mmHg 90%
10:00 +13°C° 1.1 mm 5 m/s 749 mmHg 90%
11:00 +12°C° 1.1 mm 5 m/s 749 mmHg 90%
12:00 +12°C° 1.1 mm 5 m/s 749 mmHg 90%
13:00 +10°C° 0.7 mm 6 m/s 749 mmHg 89%
14:00 +10°C° 0.7 mm 7 m/s 749 mmHg 87%
15:00 +10°C° 0.7 mm 8 m/s 748 mmHg 86%
16:00 +10°C° 0.1 mm 8 m/s 749 mmHg 83%
17:00 +10°C° 0.1 mm 8 m/s 749 mmHg 80%
18:00 +9°C° 0.1 mm 8 m/s 749 mmHg 78%
19:00 +9°C° 0 mm 7 m/s 749 mmHg 78%
20:00 +9°C° 0 mm 7 m/s 750 mmHg 78%
21:00 +9°C° 0 mm 7 m/s 750 mmHg 78%
22:00 +9°C° 0 mm 7 m/s 750 mmHg 78%
23:00 +9°C° 0 mm 7 m/s 750 mmHg 78%

24 Septembrie, Joi

Timp Temperatura Precipitaţii Vânt Presiune Umiditate
00:00 +9°C° 0 mm 7 m/s 750 mmHg 78%
01:00 +9°C° 0.8 mm 8 m/s 749 mmHg 81%
02:00 +8°C° 0.8 mm 10 m/s 748 mmHg 84%
03:00 +9°C° 0.8 mm 11 m/s 747 mmHg 87%
04:00 +8°C° 0.9 mm 12 m/s 746 mmHg 84%
05:00 +8°C° 0.9 mm 12 m/s 746 mmHg 81%
06:00 +8°C° 0.9 mm 12 m/s 745 mmHg 78%
07:00 +9°C° 0.3 mm 13 m/s 745 mmHg 76%
08:00 +9°C° 0.3 mm 14 m/s 744 mmHg 75%
09:00 +9°C° 0.3 mm 15 m/s 744 mmHg 73%
10:00 +9°C° 1 mm 15 m/s 744 mmHg 78%
11:00 +9°C° 1 mm 15 m/s 744 mmHg 82%
12:00 +8°C° 1 mm 15 m/s 744 mmHg 86%
13:00 +8°C° 0.5 mm 15 m/s 745 mmHg 84%
14:00 +8°C° 0.5 mm 15 m/s 746 mmHg 81%
15:00 +8°C° 0.5 mm 14 m/s 747 mmHg 79%
16:00 +8°C° 0.3 mm 14 m/s 747 mmHg 76%
17:00 +8°C° 0.3 mm 14 m/s 748 mmHg 74%
18:00 +8°C° 0.3 mm 13 m/s 749 mmHg 71%
19:00 +8°C° 0.2 mm 13 m/s 750 mmHg 71%
20:00 +8°C° 0.2 mm 12 m/s 751 mmHg 71%
21:00 +7°C° 0.2 mm 11 m/s 751 mmHg 71%
22:00 +7°C° 0.3 mm 10 m/s 752 mmHg 72%
23:00 +7°C° 0.3 mm 10 m/s 752 mmHg 73%

25 Septembrie, Vineri

Timp Temperatura Precipitaţii Vânt Presiune Umiditate
00:00 +7°C° 0.3 mm 9 m/s 752 mmHg 75%
01:00 +7°C° 0.3 mm 9 m/s 752 mmHg 73%
02:00 +7°C° 0.3 mm 10 m/s 752 mmHg 72%
03:00 +7°C° 0.3 mm 10 m/s 752 mmHg 71%
04:00 +7°C° 0.2 mm 10 m/s 753 mmHg 72%
05:00 +7°C° 0.2 mm 11 m/s 754 mmHg 72%
06:00 +7°C° 0.2 mm 11 m/s 754 mmHg 73%
07:00 +8°C° 0.1 mm 11 m/s 755 mmHg 70%
08:00 +8°C° 0.1 mm 12 m/s 756 mmHg 67%
09:00 +9°C° 0.1 mm 12 m/s 757 mmHg 64%
10:00 +9°C° 0.1 mm 12 m/s 757 mmHg 63%
11:00 +10°C° 0.1 mm 12 m/s 758 mmHg 63%
12:00 +10°C° 0.1 mm 12 m/s 758 mmHg 62%
13:00 +10°C° 0.1 mm 12 m/s 759 mmHg 63%
14:00 +11°C° 0.1 mm 11 m/s 759 mmHg 65%
15:00 +11°C° 0.1 mm 11 m/s 759 mmHg 66%
16:00 +11°C° 0.1 mm 11 m/s 759 mmHg 67%
17:00 +9°C° 0.1 mm 11 m/s 760 mmHg 68%
18:00 +9°C° 0.1 mm 10 m/s 760 mmHg 69%
19:00 +9°C° 0.2 mm 10 m/s 760 mmHg 72%
20:00 +10°C° 0.2 mm 9 m/s 761 mmHg 74%
21:00 +9°C° 0.2 mm 8 m/s 761 mmHg 77%
22:00 +9°C° 0.1 mm 7 m/s 761 mmHg 78%
23:00 +9°C° 0.1 mm 6 m/s 761 mmHg 78%
Arată mai mult